DW6016 Weather Reports


time (UTC)temp
F
wind
direction
speed
knots
gust
knots
rain 1hr
in
rain 24hr
in
rain mn
in
humidity
%
barometer
mb
20260502130624 51 306 0.0 0.0 0.00 0.00 0.00 89 1017.0
20260502130122 51 297 0.9 0.9 0.00 0.00 0.00 89 1017.1
20260502123607 51 299 0.0 0.9 0.00 0.00 0.00 89 1017.0
20260502123104 51 316 0.0 0.9 0.00 0.00 0.00 89 1017.2
20260502122601 51 319 0.9 0.9 0.00 0.00 0.00 89 1017.1
20260502122057 51 288 0.9 1.7 0.00 0.00 0.00 89 1017.2
20260502121555 51 297 0.9 0.9 0.00 0.00 0.00 89 1017.1
20260502121053 51 308 0.0 0.0 0.00 0.00 0.00 89 1016.7
20260502120548 51 334 0.9 0.9 0.00 0.00 0.00 90 1016.9
20260502115544 51 300 0.9 0.9 0.00 0.00 0.00 90 1017.0
20260502115039 51 303 0.9 0.9 0.00 0.00 0.00 91 1016.9
20260502114536 51 284 0.9 0.9 0.00 0.00 0.00 91 1017.0
20260502114033 51 297 0.9 0.9 0.00 0.00 0.00 92 1017.0
20260502113531 51 301 0.0 0.0 0.00 0.00 0.00 92 1016.8
20260502113029 51 301 0.0 0.0 0.00 0.00 0.00 91 1017.1
20260502112526 51 300 0.9 0.9 0.00 0.00 0.00 91 1016.9
20260502112024 51 300 0.0 0.9 0.00 0.00 0.00 91 1017.3
20260502111521 51 303 0.0 0.0 0.00 0.00 0.00 91 1017.2
20260502111018 51 244 0.9 1.7 0.00 0.00 0.00 91 1016.9
20260502110515 51 300 0.0 0.0 0.00 0.00 0.00 91 1016.9
20260502110013 51 305 0.0 0.9 0.00 0.00 0.00 92 1017.0
20260502105510 51 308 0.0 0.0 0.00 0.00 0.00 91 1016.9
20260502105008 51 311 0.0 0.0 0.00 0.00 0.00 91 1017.0
20260502104505 51 297 0.0 0.9 0.00 0.00 0.00 91 1017.1
20260502104002 51 309 0.0 0.0 0.00 0.00 0.00 91 1017.2
20260502103459 51 311 0.0 0.0 0.00 0.00 0.00 91 1017.4
20260502102956 51 313 0.9 0.9 0.00 0.00 0.00 91 1017.4
20260502102454 51 316 0.0 0.0 0.00 0.00 0.00 91 1017.6
20260502101950 51 303 0.0 0.9 0.00 0.00 0.00 90 1017.1
20260502101449 51 301 0.0 0.0 0.00 0.00 0.00 90 1017.0
20260502100947 51 285 0.9 1.7 0.00 0.00 0.00 90 1016.7
20260502100445 51 29 1.7 1.7 0.00 0.00 0.00 91 1016.4
20260502091420 52 303 0.0 0.0 0.00 0.00 0.00 93 1018.1
20260502090917 52 303 0.0 0.9 0.00 0.00 0.00 93 1018.2
20260502090414 52 303 0.0 0.0 0.00 0.00 0.00 92 1018.6
20260502071308 55 96 1.7 1.7 0.00 0.00 0.00 81 1017.9
20260502070807 55 300 0.9 0.9 0.00 0.00 0.00 80 1018.1
20260502070304 55 288 0.9 0.9 0.00 0.00 0.00 80 1017.9
20260502065803 55 306 0.0 0.0 0.00 0.00 0.00 79 1017.9
20260502065300 55 288 0.0 0.9 0.00 0.00 0.00 79 1017.8
20260502064758 55 272 0.9 0.9 0.00 0.00 0.00 80 1017.7
20260502064256 55 302 0.0 0.9 0.00 0.00 0.00 81 1018.2
20260502063753 55 309 0.0 0.0 0.00 0.00 0.00 81 1018.1
20260502063251 55 324 0.0 0.9 0.00 0.00 0.00 81 1018.0
20260502062748 56 310 0.0 0.0 0.00 0.00 0.00 80 1018.0
20260502062245 56 298 0.0 0.9 0.00 0.00 0.00 80 1017.9
20260502061744 56 283 0.9 0.9 0.00 0.00 0.00 80 1017.8
20260502061242 56 314 0.0 0.9 0.00 0.00 0.00 79 1017.9
20260502060741 56 304 0.0 0.0 0.00 0.00 0.00 79 1017.8
20260502060237 56 314 0.0 0.0 0.00 0.00 0.00 79 1017.8
20260502055736 57 315 0.0 0.0 0.00 0.00 0.00 78 1017.6
20260502055233 57 280 0.0 0.9 0.00 0.00 0.00 78 1017.7
20260502054732 57 308 0.0 0.0 0.00 0.00 0.00 78 1017.7
20260502054229 57 296 0.0 0.0 0.00 0.00 0.00 78 1017.7
20260502053727 57 309 0.0 0.9 0.00 0.00 0.00 77 1017.5
20260502053224 58 314 0.0 0.9 0.00 0.00 0.00 77 1017.6
20260502052722 58 340 0.9 0.9 0.00 0.00 0.00 77 1017.4
20260502052220 58 300 0.0 0.0 0.00 0.00 0.00 77 1017.6
20260502051717 58 304 0.0 0.0 0.00 0.00 0.00 77 1017.4
20260502051216 58 303 0.0 0.0 0.00 0.00 0.00 77 1017.2
20260502050711 59 303 0.0 0.0 0.00 0.00 0.00 77 1017.1
20260502050208 59 300 0.0 0.0 0.00 0.00 0.00 77 1017.2
20260502045705 59 323 0.0 0.9 0.00 0.00 0.00 76 1017.2
20260502045202 60 298 0.0 0.0 0.00 0.00 0.00 76 1017.2
20260502044659 60 313 0.0 0.0 0.00 0.00 0.00 75 1017.2
20260502044155 61 304 0.9 0.9 0.00 0.00 0.00 74 1017.4
20260502043653 61 305 0.9 0.9 0.00 0.00 0.00 74 1017.2
20260502043150 62 287 0.9 0.9 0.00 0.00 0.00 73 1017.1
20260502042649 62 299 0.0 0.9 0.00 0.00 0.00 72 1017.2
20260502042146 62 300 0.0 0.0 0.00 0.00 0.00 73 1016.9
20260502041644 62 308 0.0 0.0 0.00 0.00 0.00 72 1017.0
20260502041141 62 322 0.0 0.0 0.00 0.00 0.00 71 1016.9
20260502040638 63 299 0.9 0.9 0.00 0.00 0.00 71 1016.8
20260502040135 63 300 0.0 0.9 0.00 0.00 0.00 71 1016.6
20260502035631 63 305 0.9 0.9 0.00 0.00 0.00 70 1016.6
20260502035128 64 61 0.9 1.7 0.00 0.00 0.00 71 1016.6
20260502034626 64 302 0.9 0.9 0.00 0.00 0.00 70 1016.3
20260502034125 64 292 0.9 0.9 0.00 0.00 0.00 69 1016.2
20260502033622 64 305 0.0 0.9 0.00 0.00 0.00 69 1016.1
20260502033120 65 299 0.9 0.9 0.00 0.00 0.00 69 1016.1
20260502032615 65 342 0.9 0.9 0.00 0.00 0.00 69 1015.9
20260502032112 65 284 0.9 0.9 0.00 0.00 0.00 68 1016.1
20260502031610 66 304 0.0 0.9 0.00 0.00 0.00 67 1015.9
20260502031107 66 303 0.9 0.9 0.00 0.00 0.00 66 1015.9
20260502030606 66 294 0.0 0.9 0.00 0.00 0.00 65 1015.8
20260502025600 67 299 0.9 0.9 0.00 0.00 0.00 64 1015.6
20260502025058 67 303 1.7 1.7 0.00 0.00 0.00 64 1015.5
20260502024556 68 302 0.9 0.9 0.00 0.00 0.00 64 1015.5
20260502024054 68 302 0.9 0.9 0.00 0.00 0.00 63 1015.5
20260502023551 68 306 0.9 1.7 0.00 0.00 0.00 62 1015.4
20260502023048 68 186 1.7 1.7 0.00 0.00 0.00 61 1015.4
20260502022545 69 306 0.0 0.9 0.00 0.00 0.00 61 1015.3
20260502022043 69 308 0.0 0.9 0.00 0.00 0.00 60 1015.4
20260502021540 69 296 0.9 0.9 0.00 0.00 0.00 60 1015.3
20260502021036 70 312 0.0 0.9 0.00 0.00 0.00 60 1015.5
20260502020534 71 293 0.9 1.7 0.00 0.00 0.00 60 1015.3
20260502020031 71 311 0.0 0.0 0.00 0.00 0.00 60 1015.1
20260502015529 71 312 0.0 0.9 0.00 0.00 0.00 60 1015.1
20260502015025 71 305 0.0 0.9 0.00 0.00 0.00 61 1015.1
20260502014522 71 293 0.9 0.9 0.00 0.00 0.00 60 1015.2
20260502014019 72 300 0.9 0.9 0.00 0.00 0.00 59 1015.3
20260502013514 72 291 0.0 0.9 0.00 0.00 0.00 58 1015.0
20260502013011 73 299 0.9 0.9 0.00 0.00 0.00 58 1015.0
20260502012508 73 300 1.7 1.7 0.00 0.00 0.00 58 1015.0
20260502012006 73 283 0.9 0.9 0.00 0.00 0.00 56 1015.1
20260502011502 74 324 0.0 0.0 0.00 0.00 0.00 54 1015.2
20260502010959 73 305 0.0 0.0 0.00 0.00 0.00 55 1015.0
20260502010456 73 302 0.9 1.7 0.00 0.00 0.00 51 1015.0
20260502005952 73 309 0.0 0.0 0.00 0.00 0.00 51 1015.0
20260502005450 73 299 0.0 0.0 0.00 0.00 0.00 50 1015.0
20260502004948 73 304 0.9 0.9 0.00 0.00 0.00 52 1014.9
20260502004443 73 304 0.9 0.9 0.00 0.00 0.00 51 1014.9
20260502003941 73 314 0.9 0.9 0.00 0.00 0.00 50 1015.0
20260502003438 73 304 0.9 0.9 0.00 0.00 0.00 53 1015.0
20260502002934 73 303 0.0 0.0 0.00 0.00 0.00 52 1014.9
20260502002431 74 309 0.0 0.0 0.00 0.00 0.00 53 1015.2
20260502001929 73 318 0.9 0.9 0.00 0.00 0.00 55 1015.0
20260502001426 73 303 0.0 0.9 0.00 0.00 0.00 52 1015.1
20260502000924 73 303 0.9 0.9 0.00 0.00 0.00 51 1015.0
20260502000424 73 306 0.0 0.0 0.00 0.00 0.00 52 1015.1
20260501235918 73 309 0.0 0.9 0.00 0.00 0.00 51 1015.1
20260501235414 73 90 0.9 0.9 0.00 0.00 0.00 53 1015.0
20260501234909 73 314 1.7 1.7 0.00 0.00 0.00 53 1015.1
20260501234406 73 354 0.0 0.9 0.00 0.00 0.00 52 1014.9
20260501233904 73 301 1.7 1.7 0.00 0.00 0.00 54 1015.1
20260501233402 73 310 0.0 0.0 0.00 0.00 0.00 53 1014.8
20260501232857 72 321 0.0 0.0 0.00 0.00 0.00 53 1015.2
20260501232355 72 273 0.0 0.9 0.00 0.00 0.00 55 1015.2
20260501231852 73 303 0.9 0.9 0.00 0.00 0.00 54 1015.2
20260501231350 73 294 0.0 0.9 0.00 0.00 0.00 53 1015.0
20260501230848 73 315 0.0 0.0 0.00 0.00 0.00 54 1015.4
20260501230347 72 294 0.0 0.0 0.00 0.00 0.00 55 1015.5
20260501225843 72 295 0.0 0.9 0.00 0.00 0.00 56 1015.6
20260501225341 72 271 0.9 0.9 0.00 0.00 0.00 55 1015.5
20260501224837 72 301 0.0 0.9 0.00 0.00 0.00 57 1015.5
20260501224335 72 313 1.7 1.7 0.00 0.00 0.00 56 1015.8
20260501223831 72 299 0.0 0.0 0.00 0.00 0.00 56 1015.8
20260501223327 72 304 0.0 0.0 0.00 0.00 0.00 54 1015.7
20260501222823 71 310 0.0 0.0 0.00 0.00 0.00 56 1015.6
20260501222320 71 298 1.7 1.7 0.00 0.00 0.00 55 1015.9
20260501221817 72 309 0.0 0.9 0.00 0.00 0.00 56 1016.1
20260501221314 71 305 0.0 0.9 0.00 0.00 0.00 56 1015.8
20260501220812 71 343 0.9 1.7 0.00 0.00 0.00 55 1016.1
20260501220309 71 281 0.0 0.9 0.00 0.00 0.00 55 1016.0
20260501215806 71 134 1.7 1.7 0.00 0.00 0.00 56 1016.1
20260501215305 70 308 0.0 0.0 0.00 0.00 0.00 57 1015.9
20260501214757 70 23 1.7 1.7 0.00 0.00 0.00 56 1016.2
20260501214253 71 95 0.0 0.9 0.00 0.00 0.00 56 1016.4
20260501213749 71 330 0.0 0.9 0.00 0.00 0.00 58 1016.5
20260501213246 71 307 0.0 0.0 0.00 0.00 0.00 57 1016.5
20260501212742 71 272 0.9 0.9 0.00 0.00 0.00 56 1016.6
20260501212238 71 236 1.7 1.7 0.00 0.00 0.00 57 1016.7
20260501211736 72 305 0.9 1.7 0.00 0.00 0.00 59 1016.8
20260501211232 71 317 0.0 0.0 0.00 0.00 0.00 57 1016.7
20260501210730 71 307 0.9 0.9 0.00 0.00 0.00 58 1016.7
20260501210226 70 302 0.0 0.0 0.00 0.00 0.00 60 1016.5
20260501205723 70 327 0.9 0.9 0.00 0.00 0.00 58 1016.8
20260501205220 70 279 0.9 0.9 0.00 0.00 0.00 58 1016.9
20260501204717 69 307 0.0 0.9 0.00 0.00 0.00 61 1017.0
20260501204213 69 312 0.0 0.0 0.00 0.00 0.00 61 1017.0
20260501203709 68 312 1.7 2.6 0.00 0.00 0.00 60 1016.8
20260501203207 69 297 0.9 1.7 0.00 0.00 0.00 61 1017.1
20260501202704 69 0 0.9 1.7 0.00 0.00 0.00 58 1017.1
20260501202201 68 329 0.9 0.9 0.00 0.00 0.00 59 1017.3
20260501201657 69 330 0.9 0.9 0.00 0.00 0.00 57 1017.2
20260501201154 70 286 0.9 0.9 0.00 0.00 0.00 59 1017.2
20260501200651 69 305 0.0 0.0 0.00 0.00 0.00 60 1017.1
20260501200149 69 295 2.6 2.6 0.00 0.00 0.00 59 1017.4
20260501195646 67 319 1.7 1.7 0.00 0.00 0.00 62 1017.2
20260501195141 68 217 2.6 2.6 0.00 0.00 0.00 60 1017.2
20260501194637 68 357 0.9 0.9 0.00 0.00 0.00 61 1017.4
20260501194132 70 300 0.0 0.0 0.00 0.00 0.00 56 1017.4
20260501193631 69 195 2.6 2.6 0.00 0.00 0.00 61 1017.4
20260501193129 68 322 0.0 0.0 0.00 0.00 0.00 62 1017.4
20260501192625 68 298 0.9 0.9 0.00 0.00 0.00 60 1017.4
20260501192123 69 297 0.0 0.0 0.00 0.00 0.00 60 1017.5
20260501191620 69 305 0.9 0.9 0.00 0.00 0.00 59 1017.4
20260501191117 68 312 0.0 0.9 0.00 0.00 0.00 64 1017.5
20260501190613 67 305 0.9 1.7 0.00 0.00 0.00 64 1017.5
20260501190109 66 70 1.7 1.7 0.00 0.00 0.00 63 1017.6
20260501185605 66 244 0.9 0.9 0.00 0.00 0.00 63 1017.8
20260501185101 66 306 0.9 0.9 0.00 0.00 0.00 64 1017.9
20260501184557 69 302 0.0 0.9 0.00 0.00 0.00 62 1017.7
20260501184052 69 296 4.3 5.2 0.00 0.00 0.00 60 1017.9
20260501183549 67 293 0.0 0.9 0.00 0.00 0.00 64 1017.7
20260501183045 67 300 2.6 2.6 0.00 0.00 0.00 66 1017.8
20260501182542 67 281 0.0 0.9 0.00 0.00 0.00 66 1017.7
20260501182039 65 296 0.0 0.9 0.00 0.00 0.00 68 1017.8
20260501181536 66 127 2.6 2.6 0.00 0.00 0.00 67 1017.8
20260501181033 66 262 0.0 0.9 0.00 0.00 0.00 65 1017.7
20260501180531 65 1 0.0 0.9 0.00 0.00 0.00 67 1017.9
20260501180027 64 251 0.9 1.7 0.00 0.00 0.00 67 1017.9
20260501175524 64 307 0.0 0.0 0.00 0.00 0.00 69 1018.2
20260501175020 63 270 0.9 0.9 0.00 0.00 0.00 70 1018.0
20260501174518 63 265 1.7 1.7 0.00 0.00 0.00 67 1017.9
20260501174015 63 288 2.6 2.6 0.00 0.00 0.00 70 1018.0
20260501173512 62 304 3.5 4.3 0.00 0.00 0.00 70 1017.9
20260501173009 63 304 1.7 1.7 0.00 0.00 0.00 69 1017.9
20260501172504 63 268 0.0 0.9 0.00 0.00 0.00 70 1018.0
20260501172000 62 218 1.7 1.7 0.00 0.00 0.00 69 1018.0
20260501171456 62 107 1.7 1.7 0.00 0.00 0.00 71 1018.0
20260501170953 62 60 0.0 0.9 0.00 0.00 0.00 72 1018.0
20260501170450 61 310 0.0 0.0 0.00 0.00 0.00 73 1018.1
20260501165947 61 203 0.9 1.7 0.00 0.00 0.00 73 1018.1
20260501165445 61 18 0.9 1.7 0.00 0.00 0.00 75 1018.1
20260501164942 61 342 0.9 0.9 0.00 0.00 0.00 73 1018.3
20260501164440 61 301 0.9 0.9 0.00 0.00 0.00 75 1018.0
20260501163937 61 287 0.9 0.9 0.00 0.00 0.00 73 1018.2
20260501163432 60 302 0.0 0.0 0.00 0.00 0.00 77 1018.2
20260501162929 59 273 0.0 0.9 0.00 0.00 0.00 77 1018.2
20260501162426 60 12 0.9 1.7 0.00 0.00 0.00 77 1018.2
20260501161923 60 282 0.0 0.9 0.00 0.00 0.00 76 1018.4
20260501161420 60 97 0.9 0.9 0.00 0.00 0.00 77 1018.3
20260501160917 59 337 0.0 0.9 0.00 0.00 0.00 79 1018.4
20260501160413 59 42 0.0 0.0 0.00 0.00 0.00 77 1018.4
20260501155911 59 12 0.0 0.0 0.00 0.00 0.00 78 1018.3
20260501155408 61 185 1.7 2.6 0.00 0.00 0.00 74 1018.4
20260501154904 59 341 0.9 0.9 0.00 0.00 0.00 77 1018.5
20260501154402 59 74 0.9 1.7 0.00 0.00 0.00 78 1018.5
20260501153859 60 70 0.0 0.9 0.00 0.00 0.00 76 1018.3
20260501153356 59 241 1.7 1.7 0.00 0.00 0.00 76 1018.4
20260501152851 59 12 0.0 0.9 0.00 0.00 0.00 77 1018.2
20260501152350 60 316 0.0 0.0 0.00 0.00 0.00 79 1018.2
20260501151847 59 305 0.0 0.0 0.00 0.00 0.00 78 1018.4
20260501151343 58 338 0.0 0.9 0.00 0.00 0.00 79 1018.2
20260501150839 58 335 0.0 0.9 0.00 0.00 0.00 80 1018.1
20260501150335 58 350 0.0 0.9 0.00 0.00 0.00 80 1018.3
20260501145832 57 359 0.9 0.9 0.00 0.00 0.00 81 1018.4
20260501145329 57 312 0.0 0.0 0.00 0.00 0.00 81 1018.0
20260501144826 56 315 0.0 0.0 0.00 0.00 0.00 83 1018.0